Flag for Canada Weather past 2 weeks in Dawson Creek, British Columbia, Canada

Now
43 °F

Quite cool.


Feels Like: 43 °F
Forecast: 51 / 72 °F
Wind: 2 mph from West

Location: Dawson Creek Airport

Current Time: Sep 17, 2014 at 7:58:37 AM

Latest Report: Sep 17, 2014 at 7:00 AM


Visibility: 9 mi

Pressure: 29.75 "Hg

Humidity: 87%

Dew point: 39 °F

Location of Dawson CreekLocation

Historic Weather in Dawson Creek — Graph

°F

Dawson Creek temperature yesterday

Maximum temperature yesterday: 79 °F (at 4:00 PM)
Minimum temperature yesterday: 39 °F (at 3:00 AM)
Average temperature yesterday: 56 °F

Past Weeks' High & Low Weather Summary

 TemperatureHumidityPressure
High79 °F (Sep 6, 1:00 PM)100% (Sep 2, 11:00 PM)30.71 "Hg (Sep 2, 11:00 PM)
Low23 °F (Sep 10, 6:00 AM)21% (Sep 11, 1:00 PM)29.75 "Hg (Sep 2, 6:00 AM)
Average48 °F70%30.13 "Hg
* Reported Sep 2 6:00 AM — Sep 17 6:00 AM, Dawson Creek, Weather by CustomWeather, © 2014

Note: Actual official high and low records may vary slightly from our data, if they occured in-between our weather recording intervals... More about our weather records

Advertising

Dawson Creek weather history for previous 24 hours

 ConditionsComfort  
Time TempWeatherWind HumidityBarometerVisibility
6:00 AM
Sep 17
39 °FChilly.2 mph93%29.75 "Hg9 mi
5:00 AM39 °FChilly.No wind93%29.76 "Hg9 mi
4:00 AM43 °FQuite cool.2 mph87%29.76 "Hg9 mi
3:00 AM45 °FQuite cool.2 mph87%29.77 "Hg9 mi
2:00 AM46 °FCool.No wind87%29.78 "Hg9 mi
1:00 AM48 °FCool.5 mph87%29.78 "Hg9 mi
12:00 AM52 °FCool.2 mph72%29.79 "Hg9 mi
11:00 PM
Sep 16
55 °FCool.2 mph67%29.79 "Hg9 mi
10:00 PM55 °FCool.7 mph72%29.80 "Hg9 mi
9:00 PM54 °FHaze.2 mph63%29.81 "Hg6 mi
8:00 PM55 °FCool.2 mph67%29.81 "Hg9 mi
7:00 PM66 °FMild.3 mph43%29.80 "Hg9 mi
6:00 PM73 °FMild.8 mph33%29.80 "Hg9 mi
5:00 PM77 °FPleasantly warm.5 mph28%29.80 "Hg9 mi
4:00 PM79 °FPleasantly warm.3 mph24%29.82 "Hg9 mi
3:00 PM77 °FPleasantly warm.6 mph26%29.83 "Hg9 mi
2:00 PM75 °FMild.2 mph27%29.85 "Hg9 mi
1:00 PM73 °FMild.No wind31%29.86 "Hg9 mi
12:00 PM68 °FMild.No wind38%29.87 "Hg9 mi
11:00 AM63 °FMild.2 mph49%29.89 "Hg9 mi
10:00 AM55 °FCool.3 mph63%29.90 "Hg9 mi
9:00 AM48 °FCool.No wind82%29.90 "Hg9 mi
8:00 AM45 °FQuite cool.No wind87%29.90 "Hg9 mi
7:00 AM43 °FQuite cool.2 mph87%29.89 "Hg9 mi
Weather by CustomWeather, © 2014

See weather overviewHow to use our weather pages